Starlink 32833

operational
NORAD ID: 62873 Int'l Des: 2025-022 Owner: SPXS Country: US Constellation: starlink
LEOCIRCULAR

About Starlink 32833

Description loading...

Live Position

Loading 3D Globe...

Upcoming Passes

Altitude History

Altitude vs Time

uPlot chart will show altitude changes over time

Two-Line Element Set

1 62873U 25022V 25305.55756010 .00024105 00000-0 82355-3 0 9999
2 62873 53.1617 4.6971 0001375 79.3462 280.7694 15.30191956 42287
Epoch: Nov 1, 2025 • Age: 17 hours

Current Status

Altitude 475.1 km
Velocity 7.63 km/s
Sub-Earth Point 19.99°N, 125.74°W
Launch Date Feb 2, 2025
Age 0.7 years
Type internet

Technical Details

Classification Payload
Mass 730.00 kg
Dry Mass 700.00 kg
Total Mass 730.00 kg
Length 0.30 m
Diameter 4.10 m
Span 29.00 m
Shape Box + pan
Manufacturer SPXS
Bus Type Starlink V2M
Phase Status In Orbit
Owner/State SPXS/US

Large Constellations

Loading constellations...